Starlink 6328

operational
NORAD ID: 56523 Int'l Des: 2023-065 Owner: SPXS Country: US Constellation: starlink
LEOCIRCULAR

About Starlink 6328

Description loading...

Live Position

Loading 3D Globe...

Upcoming Passes

Altitude History

Altitude vs Time

uPlot chart will show altitude changes over time

Two-Line Element Set

1 56523U 23065W 25259.48155511 .00001250 00000-0 10755-3 0 9999
2 56523 43.0028 76.5643 0001023 266.9074 93.1652 15.02540105130420
Epoch: Sep 16, 2025 • Age: 36 hours

Current Status

Altitude 571.2 km
Velocity 7.58 km/s
Sub-Earth Point -41.72°S, 33.73°W
Launch Date May 14, 2023
Age 2.3 years
Type internet

Technical Details

Classification Payload
Mass 305.00 kg
Dry Mass 290.00 kg
Total Mass 305.00 kg
Length 0.20 m
Diameter 2.80 m
Span 9.00 m
Shape Box + pan
Manufacturer SPXS
Bus Type Starlink
Phase Status In Orbit
Owner/State SPXS/US

Large Constellations

Loading constellations...